Wind_Speed
23 32 38 34 32 32 32 32 33 33 35 35 34 34 35 36 36 34 32 31 31 31 30 27 24 23 22 21 18 17 18 17 17 17 17 18 19 21 23 24 27 31 32 30 26 23 21 20 19 21 24 23 20 19 21 22 21 22 22 21 20 21 23 25 24 20 18 19 19 18 18 19 20 21 22 22 23 23 24 23 21 21 21 22 22 22 22
15 22 31 32 32 33 33 33 33 33 34 34 34 33 32 34 35 35 34 33 32 31 29 27 25 22 21 20 17 16 16 16 16 15 14 14 15 15 18 23 27 29 29 28 26 25 23 22 20 21 24 23 21 20 20 21 21 22 23 22 21 20 20 21 21 20 20 21 21 20 20 20 20 21 21 22 23 23 24 25 23 22 22 23 24 24 24
17 18 22 27 31 33 34 33 33 33 34 34 34 33 32 32 33 35 35 35 34 32 30 26 24 22 20 18 17 16 15 15 15 16 15 16 16 15 16 20 25 26 25 26 26 26 24 22 22 23 24 24 21 20 19 20 21 21 20 18 16 14 14 15 16 17 19 21 22 21 20 20 20 19 20 22 23 23 24 25 25 23 23 25 26 26 26
23 21 20 22 27 31 33 34 34 34 34 34 33 33 32 32 32 33 35 35 34 33 31 28 26 23 20 19 18 17 16 17 18 18 19 20 20 19 19 21 23 23 23 24 25 25 23 23 23 24 23 21 21 21 21 22 22 21 19 17 15 14 14 15 16 18 20 21 21 21 20 20 19 19 21 23 24 24 25 25 25 25 25 26 27 27 26
26 24 23 22 23 26 30 33 35 35 35 34 34 33 33 32 32 33 33 34 34 33 32 30 28 26 24 22 21 20 20 21 22 23 23 23 22 20 20 23 24 23 23 24 24 24 24 24 25 24 22 21 20 21 21 21 22 22 21 19 19 19 20 21 22 21 22 22 21 20 21 22 22 22 23 24 26 27 27 27 26 26 26 27 28 28 27
23 23 24 24 24 25 27 30 33 35 35 35 34 34 33 33 32 33 33 34 34 34 33 32 30 28 27 26 24 23 22 23 24 25 25 25 25 24 23 25 25 22 22 24 25 26 26 26 26 24 24 23 21 20 20 19 20 22 22 22 23 24 25 25 24 23 23 23 23 22 22 23 23 23 24 25 27 28 28 28 27 27 27 27 28 28 28
21 21 22 22 23 26 28 28 29 31 35 36 35 34 34 34 34 33 33 33 34 35 35 33 32 30 29 27 25 23 23 24 25 26 26 25 26 27 27 27 25 22 22 24 25 26 27 28 27 26 26 26 25 24 24 22 21 23 24 25 25 26 25 24 23 24 23 23 23 24 24 24 24 24 24 25 26 28 28 28 28 28 29 28 27 27 27
21 21 21 19 19 23 27 28 27 26 29 34 35 34 32 33 34 34 34 33 33 34 35 35 35 34 32 29 27 27 27 27 27 28 27 24 23 25 28 30 28 25 25 26 27 27 28 27 27 27 27 27 27 28 27 25 23 24 25 25 25 25 24 23 23 23 23 22 22 23 24 23 23 24 24 24 26 27 28 28 28 28 28 27 26 27 28
24 24 23 18 16 18 21 25 27 25 24 28 32 33 32 31 31 33 34 33 33 32 32 33 36 36 34 31 31 32 32 31 29 30 30 28 25 25 27 29 28 27 27 28 28 28 28 27 27 28 29 29 29 30 30 28 27 27 26 24 24 24 23 21 22 24 24 23 22 23 23 22 23 25 25 25 26 28 29 30 30 29 29 29 30 31 31
28 28 26 22 19 17 15 17 23 25 24 24 27 29 31 31 31 32 32 32 33 33 31 30 31 32 32 33 33 33 32 30 28 28 30 31 31 31 30 28 26 26 27 28 28 29 29 29 29 30 30 30 30 30 31 30 29 29 28 26 26 27 26 24 23 25 25 24 23 24 24 23 23 24 23 26 29 29 29 31 33 33 34 34 35 35 35
26 27 24 22 20 18 13 11 16 21 24 24 25 27 29 30 32 33 34 33 32 33 32 29 27 27 28 28 27 26 27 27 26 26 29 30 31 32 33 33 31 29 29 30 30 30 31 31 31 31 31 30 29 30 30 29 28 28 28 26 25 27 28 27 26 26 26 26 25 26 26 26 27 26 26 28 30 31 32 34 35 37 37 37 38 38 38
21 21 20 19 19 18 16 12 11 15 20 23 25 26 27 29 32 34 35 36 34 33 32 27 24 24 25 24 22 21 23 24 25 28 31 31 32 33 34 34 33 31 31 32 32 32 32 32 31 31 31 29 29 30 30 29 28 28 28 26 25 27 28 29 29 29 29 28 28 28 28 29 30 30 30 31 31 32 34 34 34 38 39 38 38 39 39
15 15 14 15 17 18 19 17 13 14 18 21 23 23 23 27 30 32 34 35 34 33 31 27 23 21 22 23 23 24 26 27 27 30 33 32 33 35 35 34 33 32 33 33 33 33 33 32 32 31 30 29 29 30 30 30 30 30 29 28 29 30 31 31 31 31 29 28 29 30 31 31 32 32 33 34 34 34 34 32 32 36 39 38 39 40 42
14 13 12 12 12 13 15 17 16 15 16 18 19 20 21 22 26 29 31 32 32 31 30 31 29 22 19 22 25 28 31 33 34 35 36 33 32 33 33 34 34 34 35 34 33 33 32 32 32 32 31 31 31 31 31 32 31 31 32 32 32 34 35 36 36 35 33 32 32 33 34 34 34 35 36 37 38 39 41 41 41 44 45 45 46 48 49
13 15 15 14 11 11 13 15 16 16 17 17 18 19 20 20 22 25 27 28 29 28 27 31 32 26 21 23 26 28 31 33 35 36 35 32 30 30 30 32 34 34 35 34 33 33 33 33 33 33 32 32 33 33 35 35 35 36 36 37 38 38 39 41 42 42 41 41 41 40 40 40 41 41 40 40 42 43 44 46 48 49 50 49 49 50 51
12 14 15 15 13 13 13 14 15 16 18 19 19 20 21 21 21 23 24 26 27 26 26 28 30 30 28 26 26 27 27 25 26 28 29 28 29 29 29 30 31 31 31 31 31 32 33 33 33 34 35 36 37 38 39 39 40 40 41 41 42 43 44 45 47 48 50 51 50 46 44 44 45 46 45 46 47 47 48 49 51 52 52 52 52 52 52
12 12 14 14 14 14 15 16 17 17 19 20 21 22 23 24 24 24 24 25 25 26 26 27 28 30 30 29 28 29 28 25 23 24 25 26 27 28 29 30 30 30 30 30 31 32 33 34 35 36 37 37 38 39 40 41 42 43 44 44 45 46 46 48 49 51 53 54 54 51 48 47 47 48 49 50 52 53 54 55 56 57 57 57 56 54 53
12 12 13 15 15 16 17 18 18 18 19 21 22 23 25 26 27 27 27 27 26 27 27 27 28 27 27 26 26 27 28 28 28 28 29 30 30 31 31 32 32 32 33 33 34 34 34 35 35 35 36 37 37 38 39 40 42 43 44 45 46 47 48 49 50 52 53 53 54 53 52 52 52 52 53 53 55 56 57 58 59 59 60 60 59 58 57
13 13 13 15 16 17 17 18 18 18 19 20 21 23 25 26 28 29 29 30 30 30 30 29 29 27 26 26 27 27 28 28 29 30 32 35 36 37 37 36 36 36 35 35 35 34 34 33 34 34 35 35 36 37 37 38 39 40 41 43 44 46 47 49 50 51 52 53 53 54 54 55 55 54 54 54 55 55 56 57 57 58 58 59 59 59 59
16 15 15 16 17 18 18 19 19 19 20 20 20 21 23 24 25 27 29 31 32 33 34 34 34 32 31 31 31 32 32 32 33 34 35 36 38 39 39 38 37 36 36 35 35 34 34 34 34 35 35 36 36 37 37 38 38 39 40 41 42 43 44 46 47 48 49 50 51 51 52 52 52 52 52 52 53 53 54 55 55 56 57 58 59 59 59
15 16 16 16 17 18 18 19 19 20 21 21 22 23 23 24 24 25 27 29 31 33 34 36 37 38 37 37 36 36 37 38 39 40 40 38 38 38 38 37 37 36 36 36 36 36 37 37 37 37 38 38 39 39 39 39 39 40 41 42 43 44 44 45 46 47 47 48 49 49 50 51 51 52 53 53 54 55 55 56 56 57 58 58 59 60 60
12 13 15 16 16 17 18 19 19 20 20 21 22 23 24 25 26 27 28 29 30 31 33 34 36 37 38 39 39 39 40 42 43 44 43 42 40 39 39 39 39 38 38 38 39 40 41 41 42 42 41 41 41 41 41 42 42 43 44 44 45 45 46 47 48 48 49 49 50 51 52 53 54 55 56 57 57 58 59 59 60 60 61 61 61 61 61
10 11 12 13 14 16 16 18 19 20 21 21 22 23 24 25 26 28 29 31 32 33 34 35 36 37 39 39 40 41 42 43 45 46 46 46 44 43 42 41 42 42 42 42 42 43 44 44 45 45 44 44 45 45 45 45 46 46 47 47 48 48 49 50 50 51 51 52 53 54 55 56 56 58 59 60 60 61 61 62 62 62 63 63 63 63 63
8 9 9 10 11 12 13 15 16 18 19 20 22 22 24 25 26 28 29 31 32 34 36 37 39 40 41 42 43 43 44 45 46 47 47 47 47 46 45 44 44 44 44 44 44 45 45 46 47 47 47 47 48 49 49 49 49 49 49 50 50 51 52 52 53 53 54 55 56 57 58 58 59 60 60 61 62 63 64 64 64 64 64 64 64 65 65
7 7 8 9 9 10 11 13 14 15 16 18 19 21 22 24 25 27 29 31 32 34 35 36 38 39 41 42 43 44 45 46 46 47 48 48 49 49 48 48 47 46 46 47 47 48 48 49 49 49 50 51 52 53 52 52 52 52 52 52 53 54 55 56 56 57 58 59 59 60 61 61 62 62 63 63 64 64 65 65 65 65 65 65 64 64 64
5 6 7 8 9 10 12 13 14 15 17 18 19 20 21 22 24 25 27 29 30 32 34 35 36 38 39 40 42 43 44 45 46 47 48 48 49 49 50 50 49 49 49 49 49 50 50 50 49 49 50 51 51 51 51 51 51 51 52 52 53 54 55 55 56 56 57 58 58 58 59 59 59 59 59 59 59 58 58 59 59 59 58 57 56 56 56
7 8 9 10 11 12 13 14 16 17 18 20 21 22 23 24 25 25 26 27 29 30 32 33 35 37 38 39 40 41 42 43 44 44 45 46 46 47 47 47 47 47 47 46 46 46 46 46 46 46 46 46 45 45 46 46 47 47 48 48 49 49 50 50 50 51 51 51 51 51 51 51 51 51 50 50 49 49 49 49 49 50 49 49 48 48 49
10 11 11 13 14 15 16 17 18 20 21 22 23 25 26 27 28 29 29 30 31 32 32 33 34 35 37 38 39 40 41 42 42 42 43 43 44 44 44 44 44 44 43 43 42 42 42 42 41 41 41 41 40 41 41 41 41 42 42 42 42 43 43 43 44 44 44 44 44 44 44 44 44 44 43 43 43 43 43 44 44 45 45 46 45 45 45
12 13 14 16 18 19 20 22 23 24 25 25 26 27 28 29 30 31 32 33 34 35 35 36 36 37 37 38 38 39 40 40 41 41 42 42 42 43 43 43 43 42 42 41 41 41 40 39 39 38 38 38 38 38 38 37 37 37 37 38 38 39 39 39 39 39 39 40 40 40 40 40 39 39 39 39 40 40 40 41 41 42 42 41 41 40 39
16 17 19 20 22 24 25 26 27 27 28 29 29 30 30 31 31 32 33 34 35 36 37 38 38 39 39 40 40 40 40 40 40 40 40 41 41 42 42 42 42 42 41 41 40 40 39 38 38 37 37 37 36 36 36 35 35 35 35 36 36 36 36 36 36 36 36 36 36 36 36 36 36 36 36 37 37 37 37 37 37 37 36 35 34 33 33
20 21 23 24 25 27 28 29 29 30 31 31 32 32 32 33 33 33 33 34 35 36 37 38 38 39 40 40 41 41 41 41 40 40 40 40 40 40 40 40 40 40 39 39 39 38 38 37 36 36 36 35 34 34 34 33 33 33 33 34 34 34 33 33 34 34 34 34 34 34 34 34 34 34 34 33 33 33 32 32 31 31 30 30 30 30 30
23 24 26 27 28 29 30 30 31 31 32 32 32 32 32 32 31 31 32 32 33 33 34 34 35 36 37 38 39 40 40 40 40 40 39 39 38 38 38 38 38 38 38 37 37 37 36 36 35 35 34 34 33 33 32 32 32 31 32 32 32 32 32 32 32 32 32 32 31 31 31 31 30 30 29 29 28 28 28 27 27 27 27 28 28 29 29
26 28 29 31 31 32 32 32 33 33 32 32 31 30 29 27 27 27 27 28 29 29 30 30 31 32 33 35 36 36 37 38 38 38 38 37 37 36 36 36 36 36 36 36 36 36 36 35 35 34 34 33 33 32 32 31 31 30 30 31 31 31 30 30 30 30 29 28 28 27 26 26 25 25 24 24 24 24 24 24 24 24 24 25 25 25 25
28 30 31 33 34 34 34 34 34 33 32 30 28 26 25 24 23 23 23 23 24 25 26 27 27 28 29 31 32 33 33 34 34 35 35 35 35 34 34 34 34 34 34 34 35 35 35 34 34 33 33 33 32 31 31 30 30 29 29 30 29 29 28 28 27 26 25 24 23 22 21 21 20 20 20 21 21 21 21 21 21 21 21 21 21 21 22
29 31 32 33 34 35 34 34 33 31 29 28 26 24 23 22 22 22 21 22 22 23 23 24 25 25 26 27 28 29 30 31 31 32 32 32 32 32 32 32 32 32 32 33 33 33 33 33 33 32 32 32 31 30 30 29 29 28 28 28 27 27 26 25 23 22 21 20 19 18 18 18 18 18 18 19 19 19 19 19 18 19 19 19 20 21 22
30 32 33 34 34 34 32 31 30 28 26 25 24 22 20 20 20 20 20 20 20 21 21 22 22 23 24 24 25 25 26 27 28 29 29 30 30 30 30 30 30 30 30 31 31 31 32 32 31 31 31 31 31 30 29 28 28 27 26 26 25 23 22 21 19 18 17 17 16 16 16 17 17 18 18 18 19 19 19 18 18 19 19 20 20 22 23
32 33 34 34 33 31 28 27 25 24 23 22 21 19 18 18 18 18 18 18 18 18 19 19 20 21 22 22 22 22 23 23 24 26 26 27 27 27 27 28 28 28 28 29 29 29 30 30 29 30 30 30 29 28 28 27 26 25 24 23 21 20 18 18 17 16 16 15 15 16 16 17 17 18 18 19 19 20 20 20 20 20 20 21 21 21 22
33 34 34 33 30 27 24 22 21 20 20 19 19 18 18 18 18 17 17 16 16 16 17 18 18 19 19 19 20 20 21 21 22 23 24 25 25 25 25 25 26 26 27 27 27 28 28 28 28 29 29 28 28 27 27 26 24 23 21 20 18 17 16 16 16 16 16 16 16 16 17 18 18 19 19 19 20 20 20 20 20 20 20 20 20 20 21
34 34 34 31 27 24 21 20 19 19 18 18 17 17 17 17 18 18 17 17 17 16 16 16 16 17 16 17 17 18 19 19 20 21 22 22 23 23 23 24 24 25 25 26 26 26 26 26 27 27 27 26 26 26 25 24 22 21 20 18 16 16 16 16 16 16 16 16 16 17 18 18 18 18 19 19 19 19 19 19 19 19 19 19 19 19 20
34 34 32 29 25 21 19 19 19 18 17 16 16 16 16 17 18 18 18 18 18 18 17 16 15 15 15 16 16 17 17 17 18 19 19 20 21 21 22 22 23 23 24 24 24 24 24 25 25 25 25 25 24 24 24 23 21 20 18 17 16 16 16 16 15 15 15 15 16 16 16 16 16 16 16 17 17 18 18 18 19 19 19 19 19 19 19
34 33 31 27 23 19 17 18 18 18 17 16 15 15 15 15 16 17 17 17 17 18 17 16 15 15 15 15 15 16 16 16 17 17 18 18 19 19 20 21 21 21 22 22 22 23 23 23 23 23 23 23 23 24 24 22 21 19 18 16 16 16 15 15 14 14 14 14 14 14 13 13 13 14 15 16 17 18 19 19 19 19 19 19 18 18 18
34 32 29 25 22 18 17 17 18 18 17 16 15 15 15 14 14 15 16 16 16 17 17 16 15 14 14 14 14 15 15 16 16 16 16 17 17 18 18 19 19 19 20 20 20 21 22 22 22 22 22 23 23 24 23 22 20 19 18 16 15 15 14 13 13 13 13 13 13 13 12 13 13 14 16 17 18 18 19 19 19 19 19 18 18 18 18
33 31 27 23 20 18 17 17 18 18 18 17 16 15 15 14 12 12 12 12 12 13 14 14 14 13 13 13 13 14 14 14 15 15 16 16 16 17 17 18 18 18 19 19 20 20 21 21 21 21 22 23 24 24 23 21 20 19 18 16 15 15 14 13 13 14 14 14 13 14 14 14 15 16 17 17 18 19 19 19 19 19 19 18 18 18 18
31 29 25 21 19 17 17 17 17 18 19 19 17 15 14 13 11 9 9 9 9 10 12 13 12 12 11 11 12 12 13 13 13 14 14 15 16 16 16 17 18 18 18 19 20 20 20 20 20 21 23 24 24 24 23 22 21 20 18 16 15 15 14 14 15 15 15 15 15 15 16 17 17 17 17 18 19 19 19 19 19 19 19 19 18 18 18
30 27 23 20 19 18 17 17 17 18 19 19 18 16 14 12 10 10 9 10 10 11 11 11 11 10 9 9 9 10 11 11 12 12 13 14 14 15 15 16 17 17 18 18 19 20 19 19 20 22 24 25 25 24 22 22 22 21 19 17 16 16 16 16 16 16 16 16 17 17 18 18 18 18 18 18 19 19 19 18 19 19 19 19 19 18 18
29 26 23 20 19 18 17 17 17 17 18 18 18 16 14 12 11 10 10 11 11 11 10 9 7 6 6 6 7 8 9 9 10 10 11 12 13 14 15 15 16 17 17 18 19 19 19 19 20 22 23 25 24 23 22 22 22 21 19 18 17 17 18 18 18 18 18 18 18 18 18 18 18 18 18 18 18 18 18 19 19 20 20 20 19 18 18
29 26 23 20 19 18 17 17 17 17 17 17 16 15 14 13 11 10 10 10 9 8 7 6 5 5 6 5 5 5 7 8 9 8 8 9 11 12 13 14 15 16 16 18 18 18 18 19 20 21 23 23 23 22 22 22 22 21 20 20 19 19 20 20 20 20 19 19 18 18 18 18 18 18 18 18 18 18 19 20 21 21 20 19 18 17 17
29 26 23 21 19 18 17 17 17 16 16 16 15 14 13 13 11 9 8 8 8 7 7 6 5 6 7 6 4 4 6 8 9 9 8 7 8 9 10 11 13 14 15 16 17 17 18 18 19 21 22 22 21 21 22 22 22 22 22 21 21 21 21 21 21 21 20 19 18 18 18 18 18 18 18 17 18 18 19 20 21 20 18 17 17 16 16
29 27 24 22 20 19 18 17 16 15 15 15 14 13 13 13 11 9 8 9 9 9 9 8 8 8 8 7 6 5 5 7 9 10 10 9 8 8 7 8 9 11 12 14 15 16 17 17 18 20 21 21 21 22 23 23 24 23 23 22 22 22 22 22 21 21 20 19 19 19 19 18 18 18 17 17 17 18 19 20 19 18 17 16 15 15 14
29 27 24 22 21 20 19 17 16 15 14 14 14 13 12 12 12 12 11 12 12 11 10 10 11 11 11 10 9 9 9 8 9 10 11 11 10 10 10 10 10 10 10 11 13 14 15 16 17 19 20 21 21 22 23 24 24 24 23 23 23 23 22 22 21 20 20 19 19 19 19 18 18 18 17 17 17 17 18 18 18 16 15 15 14 13 13
29 27 25 22 21 20 20 18 17 15 14 14 13 13 12 12 13 14 14 14 14 14 14 14 14 14 14 14 13 13 13 12 11 10 11 11 11 12 12 12 12 12 11 11 10 11 13 14 16 18 20 21 22 23 24 24 24 24 24 23 23 23 22 21 21 20 20 19 19 19 18 18 18 18 18 17 17 17 17 17 16 15 14 13 13 12 12
29 28 26 23 22 21 20 19 17 15 14 14 13 13 12 12 13 15 16 16 15 15 15 15 16 16 17 17 16 16 16 15 14 13 14 14 13 13 13 14 14 13 13 12 11 11 11 12 13 15 18 21 23 24 24 24 24 24 24 23 23 23 22 21 21 20 20 19 19 19 18 18 18 18 18 17 16 16 16 16 16 15 14 13 12 12 11
Wind_Direction
246 226 219 224 231 234 237 238 235 233 233 237 240 240 242 243 243 245 246 247 249 251 254 256 257 256 254 252 254 256 258 259 262 266 267 266 262 250 238 230 218 213 215 222 229 233 229 225 228 232 234 236 239 244 247 248 249 252 256 255 253 252 250 250 254 258 261 259 252 252 260 257 252 254 260 264 264 265 267 266 260 255 252 250 249 249 250
246 227 221 225 231 235 239 239 238 236 234 237 241 242 243 244 244 244 244 246 248 249 250 253 256 257 255 253 255 256 255 254 256 259 262 263 264 254 233 217 209 209 217 225 230 232 231 229 232 236 238 239 240 242 243 245 249 253 256 257 257 255 248 242 243 248 254 253 250 253 257 252 247 251 257 262 262 262 265 265 260 255 254 253 252 252 253
247 241 235 232 231 234 238 240 240 239 236 236 241 245 246 246 245 245 244 245 248 249 250 252 253 254 255 256 257 257 253 249 249 252 256 258 261 263 249 228 219 217 219 225 230 233 234 235 235 235 237 237 235 234 238 243 246 247 248 252 256 249 234 229 237 250 256 253 250 251 250 243 241 247 254 259 260 260 260 260 256 252 251 252 254 254 254
255 255 254 246 238 236 238 240 241 242 240 237 239 244 248 250 250 248 247 247 248 250 251 253 253 253 254 255 254 253 251 250 252 256 261 263 262 261 252 236 226 221 220 226 232 232 231 233 232 229 231 236 235 231 233 238 239 239 238 240 239 234 235 244 255 260 257 253 252 250 244 240 243 250 256 258 258 259 257 254 251 248 246 249 252 252 250
257 257 258 257 251 243 240 240 241 243 243 241 240 242 246 251 252 252 252 251 251 252 254 256 256 256 258 259 258 256 255 256 258 261 265 265 262 256 241 226 219 219 222 227 231 231 229 228 227 226 228 234 233 230 231 234 234 234 236 237 239 245 254 261 264 261 256 256 257 251 243 245 252 259 262 260 259 259 257 252 249 246 245 246 248 248 248
255 256 257 256 254 250 247 244 242 242 243 244 242 242 243 248 251 252 253 253 254 255 257 259 260 260 263 264 263 258 256 258 260 263 267 266 258 249 238 226 220 222 229 231 231 232 231 231 231 232 232 231 228 225 225 228 233 235 236 241 250 258 262 264 262 259 256 254 255 253 252 255 258 262 266 265 263 262 261 257 251 245 243 245 247 248 250
252 256 258 258 257 254 253 253 249 244 242 243 243 242 241 243 247 250 251 252 254 255 257 260 261 262 263 264 263 261 261 263 264 266 272 270 258 246 237 230 228 232 236 235 233 233 233 233 235 238 237 234 230 227 226 229 240 245 243 246 255 261 262 263 262 259 256 253 254 257 259 260 262 265 267 267 265 262 261 261 258 251 245 245 248 251 255
249 251 253 256 258 256 252 252 253 249 243 240 241 242 242 241 243 246 249 252 254 255 256 259 260 261 262 263 263 265 267 269 268 267 269 268 255 239 228 225 231 239 240 236 235 236 236 236 238 241 242 241 237 235 235 234 236 244 248 252 258 261 259 257 257 256 255 254 255 259 261 261 263 267 270 270 267 264 260 259 259 255 248 245 248 253 258
248 251 251 250 256 261 255 247 246 248 246 241 239 241 242 242 242 244 247 250 253 254 256 258 259 259 260 262 265 267 270 271 271 267 264 261 253 242 232 227 231 237 237 235 236 238 238 240 242 243 244 244 242 241 241 237 232 234 241 246 250 253 253 250 249 250 252 252 253 256 259 261 265 269 271 270 266 262 259 256 255 254 251 250 253 257 261
248 255 259 258 260 267 263 243 237 240 243 243 241 241 243 244 243 243 245 248 250 253 254 256 258 258 259 262 265 266 266 266 266 263 258 253 249 247 245 242 239 237 236 234 234 236 237 238 241 242 243 242 242 241 242 242 239 238 240 242 243 245 247 247 246 246 247 249 250 252 254 256 259 263 266 267 266 263 258 255 254 254 254 255 258 260 263
248 255 263 266 265 265 259 238 229 232 235 238 241 242 244 245 244 243 244 245 247 250 251 253 258 259 258 260 262 260 258 258 257 254 250 248 246 244 244 244 244 243 240 236 234 234 235 235 237 239 240 239 240 241 242 243 245 245 247 247 245 245 246 242 240 241 244 246 248 250 252 251 251 251 252 257 264 267 264 260 257 256 255 255 258 260 263
248 254 262 264 262 258 253 243 223 215 217 223 229 234 238 242 242 241 242 243 244 246 246 247 252 253 249 250 252 248 246 247 245 239 237 239 244 245 244 243 242 242 238 234 233 233 233 233 233 236 238 238 238 240 240 242 245 248 249 247 240 238 240 237 236 239 243 245 246 247 248 249 250 251 251 251 255 260 263 263 262 260 257 255 256 258 260
242 248 253 253 251 249 249 247 233 211 203 207 213 217 223 231 235 237 239 240 241 242 239 233 234 240 241 243 247 246 242 239 237 233 229 229 234 240 243 242 240 237 233 231 230 230 231 231 232 235 239 241 243 243 244 244 246 247 250 249 241 236 236 237 238 240 240 241 244 244 245 246 248 251 253 252 251 252 254 255 256 257 258 258 260 263 264
231 227 231 238 238 235 236 239 237 226 213 207 207 207 211 220 226 230 233 235 235 236 231 224 224 232 242 244 242 240 237 236 236 236 234 229 226 227 231 232 230 228 226 225 227 230 233 236 238 241 245 249 251 253 253 252 249 246 246 247 245 242 240 239 239 238 238 242 248 249 249 249 249 250 251 251 251 250 251 251 253 257 261 265 267 268 269
226 221 226 235 236 231 230 230 230 229 226 222 217 212 211 214 218 221 224 227 228 227 224 221 222 225 234 239 233 224 222 225 226 227 228 228 226 224 223 222 222 223 224 226 231 235 238 241 243 246 249 252 254 256 256 256 254 250 247 246 246 246 245 243 241 239 241 250 257 258 256 254 253 252 251 251 251 252 252 254 256 259 263 266 268 269 270
229 224 227 231 231 231 236 236 231 228 229 230 229 225 222 222 222 222 222 222 223 222 220 220 221 222 225 229 226 220 221 225 224 222 223 227 230 230 228 226 228 230 232 235 238 240 242 245 247 251 254 256 256 256 255 255 255 254 252 250 249 248 248 247 245 244 245 252 258 260 257 255 253 253 253 252 253 255 256 257 259 260 263 266 269 271 271
236 231 228 229 231 232 235 238 236 231 228 229 230 230 229 230 231 231 230 227 225 224 221 219 220 223 227 230 232 234 239 243 239 232 229 230 232 233 233 234 234 236 238 240 243 246 249 251 253 254 255 255 255 254 254 254 254 254 254 253 253 252 252 251 251 251 252 256 260 261 260 258 257 257 257 256 257 258 259 261 262 263 265 268 270 272 271
239 235 229 229 231 230 229 231 233 231 228 227 227 227 228 229 230 232 233 232 230 228 225 222 221 225 230 235 239 243 246 248 247 244 241 241 241 242 243 244 245 245 247 249 251 254 256 256 256 255 254 254 254 253 252 252 253 253 254 255 256 256 257 257 258 259 261 263 265 266 266 266 265 264 263 262 262 262 263 263 264 265 267 269 271 271 271
243 240 235 233 235 235 234 234 235 235 233 230 227 226 225 226 227 229 231 232 231 229 228 225 224 226 230 235 238 239 240 242 244 244 244 246 247 249 251 253 254 255 256 257 258 258 259 259 258 257 257 256 255 254 254 253 254 254 255 256 257 258 259 259 260 261 263 264 265 266 267 267 267 266 265 265 265 264 265 265 266 267 268 269 270 271 272
246 246 244 242 243 244 245 244 244 244 244 241 238 235 232 229 227 228 230 232 232 232 230 229 227 226 228 233 237 239 239 239 239 240 243 245 246 248 250 253 255 256 257 258 259 259 259 259 258 258 258 258 257 257 256 256 255 256 256 256 257 258 258 259 260 260 261 262 263 264 265 265 266 266 266 267 267 267 268 268 269 270 270 271 272 272 273
246 248 248 248 248 249 250 251 250 249 249 248 247 246 244 241 238 235 234 235 235 235 235 234 233 232 231 233 236 239 241 242 242 243 244 245 247 250 252 254 256 258 259 260 260 261 261 261 261 261 261 261 261 260 260 259 259 259 259 258 259 259 260 261 261 262 263 264 265 266 267 268 269 270 270 270 271 271 271 271 271 271 271 272 272 272 272
249 249 250 251 252 252 253 253 254 254 252 251 250 249 249 249 247 245 243 242 240 239 239 238 238 237 236 236 238 240 243 245 247 248 249 249 250 252 255 257 259 261 262 263 263 264 264 264 264 265 265 264 264 264 265 265 265 265 265 264 264 264 265 265 265 266 267 268 268 269 270 270 271 271 271 271 271 271 271 271 271 271 271 271 271 271 272
255 254 253 252 253 254 255 255 256 257 256 255 254 253 251 250 250 249 247 246 245 244 243 243 242 242 242 243 244 245 247 248 250 252 254 254 254 254 256 257 259 261 262 263 264 265 265 266 266 266 266 265 266 266 266 266 266 267 267 267 267 267 268 268 268 269 269 269 270 270 270 271 271 272 272 272 272 272 273 273 273 273 274 274 274 274 275
261 259 260 259 259 259 259 259 258 259 260 260 259 258 255 253 251 250 249 248 248 247 247 247 247 247 248 248 249 250 251 253 254 255 256 258 259 259 259 259 259 259 259 260 260 262 263 264 264 265 265 265 266 267 267 268 268 268 269 269 269 270 270 270 271 271 271 272 272 272 273 273 273 274 274 275 275 275 275 276 276 277 277 278 278 279 279
269 269 270 271 271 271 270 269 268 267 265 264 263 262 261 259 256 254 253 252 251 251 251 250 250 250 250 251 251 252 253 254 255 256 258 259 260 261 262 262 262 261 261 261 261 262 262 263 263 264 265 266 267 268 269 269 270 270 270 271 271 272 272 272 272 272 273 273 273 273 274 274 274 274 275 276 277 278 278 277 277 278 278 279 279 280 280
295 291 290 287 286 286 284 282 281 280 277 275 272 270 268 266 265 263 261 259 257 255 255 254 254 253 253 253 253 253 254 254 255 257 258 259 260 261 262 264 265 265 266 266 267 267 267 267 267 266 266 267 267 268 269 269 269 270 270 270 270 271 271 272 272 272 273 273 274 274 275 275 276 276 277 277 278 279 280 280 280 279 279 279 279 280 280
312 309 304 299 296 294 292 290 288 287 286 285 283 281 279 277 275 272 270 268 265 262 260 258 257 256 256 256 256 256 256 256 257 257 259 260 261 262 263 264 265 266 267 268 269 270 270 270 270 270 269 268 268 268 268 268 268 269 269 269 270 270 271 272 272 273 274 274 275 276 276 277 277 278 279 279 279 279 280 280 281 281 281 280 280 280 280
313 312 309 307 305 303 301 298 296 294 292 289 287 285 283 282 280 278 276 274 271 269 267 264 262 261 260 259 259 259 259 259 260 260 260 261 262 262 263 263 264 265 266 267 268 269 269 270 270 269 269 268 267 267 267 267 268 268 269 269 270 270 271 272 273 274 274 275 276 277 277 278 278 279 279 279 279 279 280 280 281 282 282 283 282 281 281
311 310 309 308 307 305 302 300 298 296 294 291 288 286 284 281 279 277 275 273 272 271 270 268 267 266 265 263 262 261 260 260 260 260 260 261 261 262 263 263 264 264 264 265 266 266 267 267 268 267 267 267 267 267 267 267 268 269 269 269 270 271 272 273 273 274 275 276 277 277 278 279 279 279 279 280 280 280 280 280 280 281 282 282 283 283 282
306 306 306 306 305 305 303 301 299 297 295 293 290 288 286 283 280 276 273 270 268 267 266 266 266 266 266 266 265 264 263 262 261 261 260 260 261 261 262 263 263 264 264 264 264 265 265 265 265 265 266 266 267 267 266 267 268 269 269 269 270 271 272 273 274 275 276 276 277 278 279 280 280 280 280 280 280 280 280 280 280 280 281 282 283 284 284
307 307 308 309 309 308 306 304 302 300 298 296 293 291 289 286 283 279 275 272 268 266 264 263 262 262 263 264 264 264 265 264 264 263 263 262 262 262 263 263 263 263 263 263 264 264 264 264 264 265 265 266 265 265 266 267 268 268 268 269 270 271 272 273 275 276 277 277 278 279 279 280 280 280 280 280 280 280 280 280 280 280 281 282 282 283 284
312 313 313 313 312 310 308 306 305 304 302 300 297 295 292 288 285 281 278 274 271 268 265 262 260 260 260 260 261 261 262 263 263 263 263 263 263 263 263 263 263 263 263 263 263 263 263 263 263 263 264 264 264 265 266 266 267 267 268 269 271 272 273 274 275 276 277 278 278 278 279 279 279 280 280 280 280 280 280 281 282 282 282 283 283 285 286
315 316 316 315 314 312 311 310 309 307 306 303 300 297 293 290 288 286 283 280 276 273 269 265 262 260 259 258 258 259 259 260 260 260 260 261 261 261 261 261 261 261 261 261 261 261 261 261 261 262 262 262 263 263 264 265 265 267 268 269 270 272 273 273 274 274 274 275 276 276 277 278 279 280 281 281 281 282 283 283 284 284 285 285 287 289 291
314 315 314 314 313 312 312 311 310 309 307 304 300 296 294 294 294 293 292 289 284 280 275 271 267 264 261 260 259 258 258 258 258 258 257 257 257 257 257 257 258 258 257 257 257 258 258 259 259 259 260 260 261 262 263 264 265 266 267 268 269 270 270 270 270 270 271 273 274 276 277 279 280 281 281 283 284 285 285 286 287 287 288 289 290 292 294
314 314 314 313 312 312 312 312 310 308 305 301 298 296 296 296 296 296 294 292 288 284 280 277 273 269 265 262 261 260 258 258 257 256 255 254 254 254 253 254 254 254 254 254 254 254 255 255 256 257 258 259 260 261 261 262 264 265 265 265 266 266 266 265 266 267 269 270 273 275 277 279 280 281 282 284 286 286 287 288 289 290 291 292 294 296 298
315 314 314 314 314 315 313 311 309 306 303 299 297 296 296 296 296 296 296 294 290 286 283 280 277 274 270 267 264 262 259 257 255 254 253 252 251 251 251 251 251 251 252 251 251 251 252 253 253 254 255 257 258 258 260 261 262 262 261 260 260 260 260 261 263 265 267 269 273 276 278 280 281 282 284 285 287 288 289 291 292 293 294 296 297 299 302
316 316 316 317 318 316 313 309 307 305 302 299 296 294 293 294 295 297 298 297 294 291 288 285 281 278 274 271 268 266 262 259 256 253 252 251 250 249 249 249 250 251 251 251 251 250 251 251 252 252 254 255 256 257 258 259 259 257 255 254 254 253 254 257 260 263 266 269 274 277 281 282 283 284 285 286 288 290 291 292 293 294 295 297 299 302 307
317 318 319 320 319 315 309 305 306 307 305 301 298 294 291 290 290 292 294 295 295 294 291 287 284 281 278 275 272 268 264 260 257 254 253 251 250 249 249 249 250 250 251 251 250 250 250 250 250 251 253 254 255 256 257 257 255 252 249 247 247 248 251 256 260 263 267 271 274 278 281 283 284 285 286 287 288 289 290 291 292 293 295 298 301 307 312
319 320 321 322 319 312 305 302 305 307 306 304 301 297 291 287 284 284 285 287 289 289 287 285 285 285 284 281 278 273 267 263 259 256 254 252 251 250 249 248 248 249 249 250 250 249 249 249 249 250 252 253 253 254 254 252 248 245 244 243 244 247 252 257 262 265 269 272 275 278 281 283 284 286 287 288 290 291 292 293 294 295 297 301 305 311 317
321 323 324 323 318 310 302 301 304 306 307 308 307 304 297 291 286 283 281 281 282 282 281 281 284 288 289 287 284 280 275 269 264 260 257 255 253 251 250 249 248 248 248 248 248 248 248 248 249 250 251 251 251 250 249 246 242 240 240 241 244 249 253 257 262 265 269 272 275 278 281 283 286 288 290 292 294 296 296 298 298 299 301 305 310 315 319
325 326 327 325 319 311 304 302 303 305 306 309 312 312 306 297 291 286 283 281 279 279 279 279 282 286 289 288 286 283 279 275 270 265 261 259 257 255 253 251 250 248 247 247 247 247 247 247 248 249 249 248 247 245 243 239 237 237 239 240 243 248 252 256 260 264 267 271 273 276 280 285 291 296 300 302 303 304 304 304 304 304 306 308 311 315 320
328 329 329 327 322 316 309 306 304 304 303 305 311 314 310 300 291 286 283 282 282 282 282 280 280 283 287 289 287 284 281 278 274 270 266 263 261 259 257 255 253 251 249 248 247 247 248 248 247 246 245 244 242 240 238 235 234 236 238 239 243 248 252 255 259 262 264 268 271 276 282 289 297 303 307 309 310 311 310 310 309 309 309 310 312 314 317
330 331 331 329 324 320 315 312 309 307 305 303 305 309 309 304 293 285 282 283 285 287 288 285 283 283 285 288 289 286 282 278 274 272 268 265 262 261 260 258 255 253 251 249 248 247 248 248 246 243 241 239 237 236 234 232 232 235 237 240 244 249 252 255 258 261 263 268 274 280 286 293 299 304 309 312 314 315 314 313 312 310 309 309 311 312 313
332 332 331 328 324 320 316 313 311 310 308 306 305 305 305 302 292 280 277 283 290 295 295 293 289 287 286 288 290 289 286 281 276 271 266 264 261 260 259 259 257 255 253 252 250 249 248 245 241 237 236 235 234 233 232 231 231 233 236 240 245 250 253 256 259 262 265 271 277 282 287 292 298 303 308 313 315 316 316 315 313 312 310 309 309 308 309
333 332 330 327 323 320 317 314 312 311 309 308 305 301 298 294 284 270 268 278 289 295 296 294 291 290 292 295 298 299 297 291 284 276 269 266 263 261 260 259 259 258 256 254 252 250 247 242 237 234 233 233 232 231 231 230 231 233 236 241 246 251 255 258 260 263 267 272 277 282 286 291 297 302 308 313 315 316 316 316 315 314 311 309 307 306 305
334 332 329 325 322 319 317 315 313 311 309 309 306 299 291 286 279 269 268 275 284 290 293 294 293 296 303 311 316 318 315 308 298 289 282 277 274 270 266 262 260 259 257 255 252 250 246 242 236 233 231 232 232 231 230 231 232 234 237 243 248 253 256 259 261 263 267 271 277 282 287 292 298 303 307 312 314 314 314 316 316 313 311 308 305 303 302
334 331 327 323 321 319 315 311 310 308 308 308 306 297 287 281 277 270 265 265 269 278 286 290 295 305 317 327 340 347 344 336 327 317 304 292 285 280 275 270 265 261 258 256 254 250 247 242 237 232 230 230 231 231 231 232 233 236 241 246 250 253 255 258 260 262 266 271 277 282 288 293 298 302 306 309 311 312 314 316 317 314 311 308 306 304 303
334 331 327 322 320 317 313 309 308 307 307 308 306 296 282 274 270 264 256 253 258 267 271 273 283 301 310 316 336 2 6 359 352 347 340 325 308 296 289 283 276 269 263 259 255 252 248 244 238 232 229 229 230 233 234 235 237 240 243 247 249 251 252 254 257 261 265 270 276 282 288 292 296 300 304 307 309 311 315 319 320 318 316 314 313 310 307
333 331 326 322 319 316 313 309 308 307 306 307 306 297 280 268 261 253 247 249 255 260 260 260 270 288 296 294 293 308 334 347 350 349 348 346 340 334 326 317 305 291 278 266 257 252 249 246 240 234 229 228 231 235 238 239 241 242 243 245 246 247 248 251 255 259 264 269 275 280 285 289 292 297 301 304 307 312 317 321 323 322 321 320 319 317 313
332 330 325 320 317 314 312 310 308 307 306 307 308 301 286 267 253 248 251 254 253 251 254 260 268 277 284 284 280 280 287 302 320 331 334 335 335 335 337 338 335 327 310 287 267 255 250 247 243 239 236 235 236 238 241 241 241 240 239 240 241 242 245 248 252 257 262 267 272 276 280 285 289 293 297 301 306 312 319 324 326 325 324 322 321 319 318
331 328 324 319 315 312 311 310 309 307 306 305 307 305 294 272 254 250 257 260 255 250 255 265 270 273 277 278 275 272 274 279 291 305 312 315 316 320 323 325 327 330 329 318 295 272 259 254 250 247 245 243 242 242 242 240 237 234 234 234 236 238 241 246 250 255 259 263 268 272 276 281 286 291 295 300 305 312 319 324 326 325 323 322 321 320 320
329 327 323 318 313 310 309 308 307 305 303 301 301 302 298 282 263 254 256 260 259 259 264 271 274 274 274 274 272 271 271 272 276 285 294 298 299 303 308 311 312 313 318 321 316 301 285 273 265 258 252 247 243 240 238 235 231 229 229 231 234 237 240 244 248 252 256 260 264 268 272 278 284 289 293 297 303 310 317 322 324 324 322 321 320 319 320
Height
5652 5653 5656 5658 5660 5662 5664 5666 5667 5669 5671 5671 5672 5673 5674 5675 5677 5678 5680 5682 5683 5684 5685 5686 5688 5689 5691 5692 5694 5694 5694 5694 5694 5694 5694 5694 5695 5695 5696 5698 5701 5704 5707 5709 5711 5713 5715 5717 5719 5719 5720 5721 5723 5725 5725 5725 5726 5726 5727 5728 5730 5731 5732 5733 5735 5736 5737 5738 5739 5740 5741 5742 5743 5744 5745 5746 5748 5749 5750 5750 5752 5753 5754 5755 5756 5757 5758
5650 5652 5654 5656 5657 5659 5660 5662 5664 5666 5668 5669 5670 5671 5672 5673 5675 5676 5678 5679 5680 5681 5683 5684 5686 5687 5689 5691 5692 5692 5692 5692 5692 5693 5693 5693 5693 5694 5695 5697 5699 5702 5704 5706 5708 5710 5711 5714 5717 5717 5717 5719 5721 5722 5723 5724 5724 5724 5724 5725 5726 5727 5728 5729 5731 5733 5734 5735 5736 5738 5739 5740 5741 5742 5743 5744 5745 5747 5748 5748 5749 5751 5752 5753 5754 5755 5755
5648 5649 5651 5653 5654 5655 5657 5659 5661 5663 5665 5666 5668 5668 5669 5671 5672 5674 5675 5677 5678 5679 5681 5682 5684 5685 5687 5688 5690 5690 5690 5690 5690 5691 5691 5692 5692 5693 5694 5696 5698 5700 5702 5704 5705 5706 5708 5711 5714 5715 5715 5716 5717 5719 5720 5721 5722 5722 5722 5723 5724 5724 5725 5727 5729 5731 5732 5733 5734 5735 5736 5737 5738 5739 5740 5741 5742 5743 5744 5745 5746 5747 5748 5750 5751 5751 5752
5645 5646 5648 5650 5651 5653 5654 5656 5657 5659 5661 5663 5665 5666 5667 5668 5670 5671 5672 5674 5675 5677 5678 5680 5682 5683 5684 5685 5687 5688 5688 5688 5688 5688 5689 5690 5691 5692 5693 5694 5696 5698 5700 5701 5702 5703 5705 5708 5709 5711 5713 5713 5714 5716 5717 5718 5719 5720 5720 5721 5722 5722 5724 5726 5728 5729 5730 5730 5732 5733 5734 5735 5736 5737 5738 5738 5738 5739 5740 5741 5742 5743 5744 5745 5746 5747 5748
5643 5644 5645 5647 5648 5650 5651 5652 5654 5655 5658 5660 5662 5664 5665 5666 5667 5668 5669 5671 5673 5674 5676 5677 5679 5680 5681 5683 5684 5685 5686 5686 5685 5685 5686 5687 5688 5690 5691 5691 5693 5695 5697 5698 5699 5700 5702 5704 5705 5708 5711 5711 5711 5713 5715 5716 5716 5717 5718 5719 5720 5721 5722 5724 5725 5726 5727 5729 5729 5730 5731 5733 5734 5735 5735 5735 5736 5736 5736 5737 5738 5739 5740 5741 5742 5743 5744
5641 5641 5642 5643 5645 5646 5647 5649 5651 5652 5654 5656 5659 5661 5662 5663 5664 5665 5666 5668 5670 5672 5673 5674 5676 5677 5678 5680 5681 5682 5683 5683 5682 5682 5683 5684 5686 5687 5689 5690 5691 5693 5695 5696 5697 5698 5699 5701 5703 5705 5707 5708 5708 5710 5712 5713 5714 5715 5716 5717 5718 5719 5720 5721 5722 5723 5724 5726 5726 5726 5728 5730 5731 5732 5732 5733 5733 5733 5733 5734 5734 5735 5736 5737 5738 5739 5740
5638 5639 5640 5641 5642 5643 5644 5645 5647 5649 5651 5653 5655 5657 5659 5660 5661 5661 5663 5665 5667 5669 5670 5672 5672 5673 5675 5676 5677 5679 5680 5680 5680 5680 5680 5681 5682 5684 5686 5688 5689 5691 5693 5695 5696 5697 5698 5699 5700 5702 5703 5704 5706 5707 5709 5710 5711 5712 5713 5714 5715 5716 5717 5719 5719 5719 5721 5722 5723 5723 5725 5727 5728 5728 5729 5730 5730 5730 5731 5731 5732 5732 5733 5734 5735 5736 5736
5636 5637 5638 5639 5640 5640 5640 5642 5643 5645 5647 5649 5651 5653 5655 5657 5658 5658 5660 5662 5664 5666 5667 5668 5669 5670 5672 5673 5674 5675 5676 5677 5677 5677 5677 5679 5680 5681 5682 5685 5687 5689 5691 5692 5693 5694 5696 5697 5698 5699 5700 5701 5703 5704 5705 5708 5709 5709 5710 5712 5712 5713 5714 5715 5716 5717 5718 5719 5720 5720 5722 5724 5725 5725 5725 5726 5727 5727 5728 5728 5729 5729 5730 5731 5732 5732 5732
5634 5635 5636 5637 5638 5638 5638 5639 5640 5642 5643 5645 5648 5650 5651 5653 5655 5656 5657 5658 5660 5662 5664 5665 5665 5667 5668 5670 5671 5671 5672 5672 5673 5673 5674 5675 5677 5678 5679 5681 5683 5685 5687 5689 5691 5692 5693 5694 5695 5696 5697 5698 5700 5701 5702 5704 5705 5706 5707 5709 5710 5709 5710 5712 5714 5714 5715 5716 5717 5717 5719 5721 5721 5721 5722 5723 5723 5724 5725 5725 5726 5727 5727 5728 5728 5728 5728
5632 5633 5634 5635 5636 5637 5636 5637 5637 5639 5640 5642 5644 5646 5648 5649 5651 5652 5653 5655 5656 5658 5660 5661 5662 5663 5665 5666 5667 5667 5668 5668 5668 5669 5669 5670 5672 5674 5676 5678 5680 5682 5684 5686 5688 5689 5690 5691 5692 5693 5694 5695 5697 5698 5699 5700 5702 5703 5704 5706 5707 5707 5707 5709 5711 5712 5712 5713 5714 5714 5716 5718 5719 5719 5719 5719 5719 5720 5721 5722 5723 5723 5724 5724 5724 5724 5723
5629 5630 5631 5633 5634 5635 5635 5635 5635 5636 5638 5640 5641 5643 5644 5645 5647 5648 5650 5651 5652 5654 5656 5658 5660 5661 5662 5663 5663 5664 5664 5664 5663 5663 5664 5665 5667 5669 5671 5674 5676 5679 5681 5682 5684 5685 5686 5687 5689 5690 5691 5692 5694 5695 5696 5697 5698 5700 5701 5702 5703 5704 5704 5706 5707 5708 5708 5709 5710 5711 5712 5713 5715 5716 5717 5717 5717 5717 5717 5717 5718 5718 5719 5719 5719 5719 5719
5626 5628 5629 5630 5631 5633 5634 5634 5634 5634 5635 5637 5639 5640 5641 5642 5643 5644 5645 5647 5649 5651 5653 5656 5658 5659 5659 5660 5660 5661 5661 5661 5660 5659 5659 5660 5662 5664 5666 5669 5672 5674 5676 5678 5679 5680 5682 5683 5685 5686 5687 5689 5690 5691 5692 5694 5695 5696 5697 5698 5700 5700 5700 5701 5702 5703 5704 5705 5706 5706 5707 5708 5710 5711 5713 5714 5715 5714 5713 5712 5712 5712 5712 5713 5714 5714 5714
5624 5625 5626 5627 5628 5630 5631 5632 5633 5633 5633 5634 5636 5637 5638 5638 5639 5640 5641 5643 5645 5647 5650 5653 5655 5655 5656 5657 5657 5657 5658 5658 5658 5657 5656 5656 5658 5660 5662 5665 5667 5669 5671 5673 5674 5676 5677 5679 5681 5682 5684 5685 5686 5688 5689 5690 5691 5692 5693 5694 5695 5696 5696 5697 5698 5698 5699 5700 5701 5702 5702 5703 5705 5706 5707 5708 5709 5710 5709 5708 5707 5706 5706 5707 5708 5708 5708
5622 5623 5624 5625 5626 5627 5628 5629 5630 5632 5632 5633 5633 5634 5635 5636 5636 5637 5638 5640 5642 5644 5646 5649 5651 5652 5653 5653 5653 5652 5652 5652 5653 5653 5654 5654 5656 5658 5659 5661 5663 5664 5666 5668 5670 5671 5673 5674 5676 5678 5680 5681 5683 5684 5685 5686 5687 5688 5689 5689 5690 5691 5692 5693 5693 5694 5694 5695 5696 5697 5698 5699 5700 5701 5701 5702 5702 5703 5703 5702 5702 5701 5701 5701 5702 5702 5702
5620 5621 5622 5623 5624 5625 5626 5626 5628 5630 5631 5631 5631 5632 5633 5634 5634 5635 5636 5637 5639 5641 5643 5645 5647 5648 5649 5649 5649 5648 5647 5646 5647 5649 5650 5652 5654 5655 5656 5658 5659 5661 5663 5665 5667 5668 5670 5671 5673 5674 5676 5677 5679 5680 5681 5682 5683 5684 5685 5685 5686 5686 5687 5688 5688 5689 5689 5690 5691 5692 5693 5694 5695 5695 5696 5696 5697 5697 5697 5696 5696 5695 5695 5695 5695 5695 5695
5618 5619 5620 5622 5623 5623 5624 5624 5626 5627 5628 5629 5630 5630 5631 5631 5632 5633 5634 5635 5637 5639 5640 5642 5643 5645 5645 5645 5645 5644 5643 5643 5644 5645 5647 5648 5650 5652 5653 5655 5656 5658 5660 5662 5663 5665 5666 5668 5669 5670 5671 5672 5674 5675 5676 5677 5678 5679 5679 5680 5680 5681 5682 5682 5683 5683 5684 5685 5685 5686 5687 5688 5688 5689 5689 5690 5690 5690 5690 5690 5690 5689 5689 5688 5688 5688 5687
5617 5618 5619 5620 5621 5622 5622 5622 5623 5625 5626 5627 5628 5629 5629 5630 5630 5631 5632 5633 5635 5636 5637 5638 5640 5641 5641 5641 5640 5639 5640 5642 5643 5643 5643 5644 5646 5648 5649 5651 5653 5654 5656 5657 5659 5660 5662 5663 5664 5665 5666 5667 5668 5669 5670 5671 5672 5673 5673 5674 5674 5675 5675 5676 5676 5677 5677 5678 5679 5679 5680 5681 5682 5682 5682 5683 5683 5683 5683 5683 5682 5682 5681 5681 5681 5680 5680
5615 5617 5618 5619 5619 5620 5620 5620 5621 5622 5623 5624 5625 5626 5627 5628 5629 5629 5630 5631 5632 5633 5634 5635 5636 5637 5637 5637 5636 5635 5637 5638 5640 5640 5640 5641 5642 5644 5646 5647 5649 5650 5651 5653 5654 5655 5656 5657 5658 5659 5660 5661 5662 5662 5663 5664 5665 5666 5667 5667 5668 5668 5668 5669 5669 5670 5670 5670 5670 5671 5672 5673 5673 5674 5674 5675 5675 5675 5675 5675 5675 5674 5674 5673 5673 5672 5672
5614 5615 5616 5617 5617 5618 5618 5619 5620 5620 5621 5622 5623 5623 5624 5625 5626 5627 5627 5628 5629 5630 5630 5631 5632 5632 5633 5632 5632 5632 5634 5635 5635 5636 5637 5637 5639 5640 5642 5643 5644 5645 5646 5648 5649 5650 5651 5652 5653 5654 5655 5656 5656 5657 5658 5659 5659 5660 5661 5661 5661 5661 5662 5662 5662 5663 5663 5663 5664 5664 5664 5664 5665 5665 5666 5666 5666 5666 5666 5666 5666 5666 5665 5665 5664 5664 5663
5612 5613 5614 5615 5615 5615 5616 5617 5618 5618 5619 5619 5620 5621 5621 5622 5623 5624 5625 5625 5625 5626 5626 5627 5627 5627 5628 5628 5628 5629 5630 5630 5631 5631 5632 5633 5635 5636 5637 5638 5639 5640 5642 5643 5644 5645 5646 5647 5648 5649 5650 5651 5652 5652 5653 5654 5654 5655 5655 5656 5656 5656 5656 5656 5657 5657 5657 5657 5658 5658 5658 5658 5658 5658 5658 5658 5658 5658 5658 5658 5658 5657 5657 5656 5655 5655 5655
5611 5611 5611 5612 5613 5613 5613 5614 5615 5616 5616 5617 5617 5618 5619 5619 5620 5621 5622 5622 5622 5623 5623 5623 5623 5623 5623 5624 5624 5625 5625 5626 5626 5627 5628 5630 5631 5632 5633 5634 5635 5636 5637 5638 5639 5640 5641 5642 5643 5644 5645 5646 5646 5646 5647 5648 5649 5649 5650 5650 5650 5650 5650 5650 5650 5651 5651 5651 5651 5651 5651 5651 5651 5651 5650 5651 5650 5650 5650 5650 5650 5649 5649 5648 5647 5646 5646
5609 5609 5609 5610 5610 5611 5611 5611 5612 5612 5613 5613 5614 5614 5615 5616 5617 5618 5618 5619 5619 5620 5620 5620 5621 5621 5621 5621 5621 5621 5622 5622 5622 5623 5624 5626 5628 5629 5630 5630 5631 5632 5632 5633 5634 5635 5636 5637 5638 5639 5640 5640 5639 5640 5640 5641 5642 5642 5642 5643 5643 5643 5643 5643 5643 5643 5644 5644 5644 5644 5644 5644 5643 5643 5642 5643 5643 5642 5641 5642 5642 5641 5640 5640 5639 5638 5638
5607 5607 5608 5608 5608 5608 5608 5609 5609 5609 5609 5610 5610 5611 5611 5612 5613 5613 5614 5615 5615 5615 5616 5616 5617 5617 5617 5617 5618 5618 5618 5619 5619 5620 5620 5622 5624 5625 5626 5627 5627 5628 5628 5629 5629 5630 5630 5631 5632 5633 5634 5633 5633 5633 5634 5635 5635 5635 5635 5635 5636 5636 5636 5636 5636 5636 5636 5636 5636 5636 5636 5636 5636 5635 5633 5633 5633 5633 5633 5632 5632 5631 5631 5630 5630 5629 5628
5606 5606 5606 5606 5606 5606 5606 5606 5606 5606 5606 5607 5607 5607 5607 5608 5608 5609 5609 5610 5610 5611 5611 5611 5612 5612 5612 5613 5613 5614 5614 5614 5615 5616 5617 5617 5618 5620 5621 5622 5623 5623 5624 5624 5625 5625 5625 5625 5626 5627 5628 5627 5626 5626 5627 5628 5629 5629 5629 5629 5629 5629 5628 5628 5629 5629 5629 5628 5628 5628 5627 5628 5628 5627 5626 5624 5623 5623 5624 5624 5622 5621 5621 5620 5620 5619 5618
5605 5605 5605 5605 5605 5605 5604 5604 5604 5604 5604 5604 5604 5604 5603 5604 5604 5604 5605 5605 5605 5606 5606 5606 5607 5607 5607 5607 5607 5608 5609 5609 5610 5611 5612 5612 5613 5613 5614 5615 5616 5617 5617 5618 5618 5619 5619 5620 5620 5621 5621 5620 5619 5620 5620 5621 5621 5622 5622 5622 5621 5621 5620 5620 5621 5621 5621 5620 5620 5619 5620 5620 5619 5619 5618 5617 5615 5613 5613 5613 5613 5612 5611 5611 5610 5609 5608
5604 5604 5603 5603 5603 5603 5602 5602 5602 5601 5601 5601 5601 5600 5600 5600 5600 5600 5600 5600 5601 5601 5601 5601 5601 5601 5601 5602 5602 5602 5603 5604 5604 5605 5605 5606 5606 5607 5607 5608 5609 5610 5610 5611 5611 5611 5612 5612 5613 5614 5613 5613 5613 5613 5613 5614 5614 5614 5615 5614 5614 5613 5613 5613 5613 5613 5613 5612 5612 5612 5612 5611 5611 5610 5610 5609 5608 5605 5603 5602 5602 5602 5602 5602 5602 5600 5599
5603 5603 5602 5602 5602 5601 5601 5600 5600 5599 5598 5598 5597 5596 5596 5596 5596 5596 5596 5595 5595 5595 5595 5595 5596 5596 5596 5596 5596 5597 5598 5598 5599 5599 5600 5600 5600 5601 5601 5602 5603 5603 5604 5604 5604 5604 5605 5605 5606 5606 5606 5606 5606 5606 5607 5607 5607 5607 5608 5607 5606 5606 5606 5606 5606 5605 5605 5605 5604 5604 5604 5604 5603 5603 5602 5601 5600 5599 5597 5595 5594 5593 5593 5593 5594 5593 5591
5602 5601 5601 5600 5600 5599 5598 5598 5597 5596 5596 5595 5594 5593 5592 5592 5591 5591 5590 5590 5589 5589 5590 5590 5590 5590 5590 5591 5591 5591 5592 5592 5593 5594 5594 5594 5594 5595 5595 5596 5597 5598 5599 5599 5599 5599 5599 5599 5600 5600 5599 5599 5600 5600 5600 5600 5601 5601 5601 5601 5600 5599 5599 5599 5599 5599 5599 5598 5598 5598 5597 5597 5597 5596 5596 5595 5594 5593 5592 5590 5588 5586 5585 5585 5585 5586 5585
5600 5600 5599 5598 5597 5596 5595 5594 5594 5593 5592 5591 5590 5589 5588 5587 5586 5586 5585 5584 5584 5584 5583 5583 5584 5584 5584 5584 5585 5585 5586 5586 5587 5587 5588 5588 5589 5589 5590 5591 5592 5592 5593 5594 5594 5594 5594 5594 5594 5594 5593 5593 5594 5595 5594 5594 5595 5596 5595 5594 5594 5594 5594 5594 5594 5593 5593 5593 5592 5592 5592 5591 5591 5590 5590 5589 5588 5587 5586 5585 5583 5582 5580 5579 5578 5578 5578
5598 5597 5597 5596 5594 5593 5592 5590 5589 5588 5587 5586 5584 5583 5582 5582 5581 5580 5579 5579 5578 5578 5578 5577 5577 5577 5578 5578 5578 5578 5579 5579 5580 5581 5581 5582 5583 5583 5584 5585 5586 5587 5588 5588 5588 5588 5589 5589 5589 5588 5588 5588 5589 5589 5589 5589 5590 5590 5590 5589 5589 5589 5589 5589 5588 5588 5588 5587 5587 5587 5586 5586 5585 5585 5584 5583 5583 5582 5581 5580 5579 5577 5576 5575 5574 5573 5573
5596 5595 5593 5592 5591 5589 5587 5586 5584 5582 5581 5580 5578 5577 5576 5575 5574 5573 5573 5572 5572 5572 5571 5571 5572 5572 5572 5572 5572 5572 5572 5573 5574 5574 5575 5576 5577 5577 5578 5579 5580 5581 5582 5582 5582 5582 5583 5583 5583 5583 5583 5583 5583 5584 5584 5585 5585 5585 5584 5584 5584 5584 5584 5584 5583 5583 5583 5582 5582 5582 5582 5581 5581 5580 5579 5579 5578 5577 5576 5575 5574 5573 5572 5571 5570 5569 5568
5592 5591 5589 5588 5586 5585 5583 5581 5579 5577 5575 5574 5572 5571 5570 5569 5568 5567 5566 5565 5565 5565 5565 5565 5565 5565 5566 5566 5566 5566 5567 5567 5568 5569 5569 5570 5571 5572 5573 5574 5575 5576 5576 5576 5577 5577 5577 5578 5578 5578 5578 5578 5578 5579 5580 5580 5580 5580 5579 5579 5579 5579 5579 5579 5579 5578 5578 5578 5578 5578 5577 5577 5576 5575 5575 5574 5573 5572 5572 5571 5570 5570 5569 5568 5566 5566 5565
5588 5587 5585 5583 5581 5579 5577 5576 5574 5572 5570 5568 5566 5565 5564 5563 5562 5561 5560 5560 5559 5559 5559 5559 5559 5559 5560 5560 5560 5561 5561 5562 5562 5563 5564 5565 5566 5567 5567 5568 5569 5570 5571 5571 5571 5572 5572 5573 5573 5573 5573 5573 5574 5575 5575 5576 5576 5575 5575 5575 5575 5575 5575 5575 5575 5574 5574 5574 5574 5574 5573 5572 5572 5571 5571 5570 5569 5568 5568 5567 5567 5566 5565 5564 5563 5562 5561
5586 5584 5581 5579 5577 5575 5573 5570 5568 5566 5564 5563 5561 5560 5559 5558 5557 5556 5556 5555 5555 5554 5554 5554 5554 5554 5554 5555 5555 5555 5556 5556 5557 5558 5559 5559 5560 5561 5562 5563 5564 5565 5565 5566 5566 5567 5567 5568 5568 5568 5569 5569 5570 5570 5571 5571 5571 5571 5571 5570 5570 5571 5571 5571 5570 5570 5570 5570 5570 5570 5569 5569 5569 5568 5567 5566 5566 5565 5565 5564 5563 5562 5561 5561 5560 5559 5558
5583 5580 5578 5576 5573 5571 5569 5566 5564 5562 5560 5558 5557 5556 5555 5554 5554 5553 5552 5551 5551 5550 5550 5550 5550 5550 5550 5550 5550 5551 5551 5552 5552 5553 5554 5554 5555 5556 5557 5558 5559 5559 5560 5561 5562 5562 5563 5563 5564 5564 5564 5565 5565 5566 5566 5567 5567 5567 5567 5566 5567 5567 5567 5567 5567 5567 5567 5567 5566 5566 5566 5566 5565 5565 5564 5563 5563 5562 5562 5561 5560 5559 5558 5557 5557 5556 5554
5579 5577 5574 5572 5569 5566 5564 5562 5560 5558 5557 5555 5554 5553 5552 5551 5550 5550 5549 5548 5548 5547 5546 5546 5546 5546 5546 5546 5546 5547 5547 5547 5548 5548 5549 5550 5550 5552 5552 5553 5554 5555 5555 5556 5557 5558 5558 5559 5559 5560 5560 5560 5561 5562 5562 5563 5563 5563 5563 5563 5563 5563 5563 5563 5563 5564 5564 5563 5563 5563 5563 5563 5563 5562 5561 5561 5560 5559 5559 5558 5557 5556 5555 5554 5553 5552 5551
5575 5573 5570 5567 5565 5562 5560 5558 5556 5555 5553 5552 5551 5550 5549 5549 5548 5547 5546 5546 5545 5544 5544 5543 5542 5542 5542 5542 5542 5543 5543 5543 5543 5544 5544 5545 5546 5547 5548 5548 5549 5550 5551 5551 5552 5553 5554 5555 5555 5555 5555 5556 5557 5557 5558 5559 5559 5559 5559 5559 5560 5560 5560 5560 5561 5561 5561 5561 5561 5560 5560 5560 5560 5559 5559 5558 5557 5557 5556 5555 5554 5553 5552 5551 5550 5549 5547
5571 5568 5566 5563 5561 5559 5556 5555 5553 5552 5550 5549 5548 5547 5547 5546 5545 5544 5544 5543 5543 5542 5542 5541 5540 5539 5539 5539 5539 5539 5539 5539 5540 5540 5540 5541 5542 5542 5543 5544 5545 5545 5546 5547 5548 5549 5550 5550 5550 5551 5551 5552 5553 5553 5554 5555 5555 5555 5555 5556 5556 5557 5557 5558 5558 5558 5558 5558 5558 5558 5558 5557 5557 5556 5556 5555 5554 5553 5553 5552 5551 5550 5549 5548 5547 5545 5544
5568 5565 5562 5559 5557 5555 5553 5552 5551 5549 5548 5547 5546 5545 5544 5544 5543 5542 5542 5541 5541 5540 5540 5539 5538 5537 5537 5536 5536 5536 5536 5536 5536 5537 5537 5537 5538 5539 5539 5540 5541 5541 5542 5543 5544 5545 5545 5546 5546 5547 5547 5548 5549 5549 5550 5551 5551 5552 5552 5553 5554 5554 5555 5555 5555 5555 5555 5555 5555 5555 5555 5554 5554 5553 5553 5552 5551 5550 5549 5548 5547 5546 5545 5544 5543 5542 5541
5565 5562 5559 5556 5554 5552 5551 5549 5548 5547 5546 5545 5543 5543 5542 5541 5541 5540 5539 5539 5538 5537 5537 5537 5536 5536 5535 5534 5534 5534 5534 5534 5534 5534 5534 5534 5535 5535 5536 5536 5537 5538 5539 5539 5540 5541 5542 5542 5543 5543 5544 5544 5545 5545 5546 5547 5548 5549 5549 5550 5551 5552 5552 5552 5552 5552 5552 5552 5552 5552 5552 5552 5551 5551 5550 5549 5548 5547 5546 5545 5544 5543 5542 5541 5540 5539 5538
5561 5558 5555 5553 5551 5549 5548 5547 5545 5544 5544 5543 5541 5540 5540 5539 5538 5538 5537 5537 5536 5535 5535 5535 5534 5534 5533 5533 5532 5531 5531 5531 5531 5531 5531 5531 5532 5532 5532 5533 5534 5535 5535 5536 5537 5538 5538 5539 5539 5540 5540 5541 5541 5542 5543 5544 5545 5546 5547 5548 5548 5549 5549 5549 5550 5550 5550 5550 5550 5550 5550 5549 5549 5548 5547 5546 5545 5544 5544 5543 5542 5540 5540 5539 5537 5536 5535
5557 5554 5552 5550 5548 5547 5546 5544 5543 5542 5541 5540 5540 5539 5537 5537 5536 5535 5535 5534 5534 5533 5533 5533 5532 5532 5531 5531 5530 5529 5529 5529 5529 5529 5529 5529 5529 5529 5529 5530 5531 5531 5532 5533 5533 5534 5535 5535 5536 5536 5537 5537 5538 5539 5540 5541 5543 5543 5544 5545 5546 5546 5546 5547 5547 5547 5547 5547 5547 5547 5547 5547 5546 5545 5545 5544 5543 5542 5541 5540 5539 5538 5537 5536 5535 5534 5533
5554 5551 5549 5547 5546 5544 5543 5542 5540 5539 5538 5538 5537 5536 5535 5534 5534 5533 5532 5532 5532 5531 5531 5530 5530 5530 5529 5529 5528 5527 5527 5527 5526 5526 5526 5526 5526 5526 5527 5527 5528 5528 5529 5529 5530 5530 5531 5532 5533 5533 5534 5534 5535 5536 5537 5539 5540 5541 5542 5542 5543 5543 5544 5544 5545 5545 5545 5545 5545 5545 5545 5544 5544 5543 5542 5541 5540 5539 5538 5537 5536 5535 5534 5533 5532 5531 5530
5551 5549 5547 5545 5544 5542 5541 5540 5538 5537 5536 5535 5534 5534 5533 5532 5532 5531 5531 5530 5530 5529 5529 5529 5528 5528 5527 5527 5526 5526 5525 5525 5524 5524 5524 5524 5524 5524 5524 5524 5525 5525 5526 5526 5527 5527 5528 5529 5529 5530 5530 5531 5532 5533 5535 5536 5537 5538 5539 5540 5540 5541 5541 5542 5542 5542 5543 5543 5542 5542 5542 5542 5541 5541 5540 5539 5538 5537 5536 5535 5534 5532 5531 5530 5530 5529 5528
5549 5547 5545 5543 5541 5540 5539 5537 5536 5535 5533 5532 5531 5531 5531 5530 5530 5529 5529 5529 5528 5528 5527 5527 5526 5526 5525 5525 5524 5524 5523 5523 5523 5522 5522 5522 5522 5522 5522 5522 5522 5522 5523 5523 5524 5524 5525 5525 5526 5527 5527 5528 5529 5531 5533 5534 5535 5535 5536 5537 5538 5538 5539 5539 5540 5540 5540 5540 5540 5540 5540 5539 5539 5538 5537 5536 5535 5534 5534 5532 5531 5530 5529 5528 5527 5526 5525
5547 5545 5543 5541 5540 5538 5537 5535 5534 5533 5531 5530 5529 5528 5528 5528 5528 5527 5527 5527 5527 5526 5526 5525 5525 5525 5524 5524 5523 5522 5522 5521 5521 5520 5520 5520 5520 5519 5519 5520 5520 5520 5520 5520 5521 5521 5522 5522 5523 5524 5524 5525 5527 5529 5530 5531 5532 5533 5534 5534 5535 5536 5536 5537 5537 5537 5537 5537 5537 5537 5537 5537 5536 5536 5535 5534 5533 5532 5531 5530 5529 5528 5527 5525 5524 5523 5522
5545 5543 5541 5539 5538 5536 5535 5533 5532 5530 5529 5528 5527 5526 5526 5525 5525 5525 5525 5525 5525 5525 5524 5524 5524 5523 5523 5522 5522 5521 5521 5520 5520 5519 5519 5518 5518 5518 5517 5517 5517 5517 5518 5518 5518 5518 5519 5519 5520 5521 5522 5523 5524 5526 5527 5528 5529 5530 5531 5532 5532 5533 5533 5534 5534 5534 5535 5535 5535 5535 5534 5534 5534 5533 5533 5532 5531 5530 5529 5528 5527 5525 5524 5523 5522 5521 5520
5543 5541 5539 5538 5536 5534 5533 5531 5530 5529 5527 5526 5525 5524 5523 5523 5523 5523 5524 5524 5524 5523 5523 5523 5523 5522 5522 5521 5521 5520 5520 5519 5519 5518 5518 5517 5517 5516 5516 5515 5515 5515 5515 5515 5516 5516 5516 5517 5517 5518 5519 5520 5522 5523 5524 5525 5526 5527 5528 5529 5529 5530 5531 5531 5531 5531 5532 5532 5532 5532 5532 5531 5531 5531 5530 5529 5529 5528 5527 5526 5524 5523 5521 5520 5519 5519 5518
5542 5539 5537 5536 5534 5532 5531 5530 5528 5527 5525 5524 5523 5522 5521 5521 5521 5522 5522 5522 5522 5522 5522 5521 5521 5521 5521 5520 5520 5519 5519 5519 5518 5518 5517 5516 5516 5515 5514 5514 5513 5513 5513 5513 5513 5513 5514 5514 5515 5515 5516 5518 5519 5520 5521 5522 5523 5524 5525 5525 5526 5527 5527 5528 5528 5529 5529 5529 5529 5529 5529 5529 5529 5528 5528 5527 5526 5526 5525 5523 5522 5521 5519 5518 5517 5517 5516
5540 5537 5535 5534 5532 5530 5529 5528 5526 5525 5524 5522 5521 5520 5519 5519 5519 5520 5520 5520 5520 5520 5520 5520 5519 5519 5519 5519 5519 5518 5518 5517 5517 5517 5516 5515 5515 5514 5513 5513 5512 5512 5511 5511 5511 5511 5511 5512 5513 5513 5514 5515 5516 5517 5518 5518 5519 5520 5521 5522 5523 5524 5524 5525 5525 5526 5526 5526 5526 5526 5526 5526 5526 5526 5525 5525 5524 5523 5522 5521 5520 5519 5518 5517 5516 5515 5515
5537 5535 5533 5532 5530 5528 5527 5526 5524 5523 5522 5521 5520 5519 5518 5517 5517 5517 5517 5517 5517 5517 5517 5517 5517 5517 5517 5517 5517 5516 5516 5516 5515 5515 5515 5514 5514 5513 5512 5512 5511 5511 5510 5510 5509 5509 5509 5510 5510 5511 5512 5512 5513 5514 5514 5515 5516 5517 5518 5519 5520 5520 5521 5522 5522 5523 5523 5523 5524 5524 5524 5524 5523 5523 5523 5522 5522 5521 5520 5519 5518 5517 5516 5516 5515 5514 5513
5535 5533 5531 5529 5528 5526 5525 5524 5522 5521 5520 5519 5518 5517 5516 5515 5515 5515 5515 5515 5515 5515 5515 5514 5514 5514 5514 5514 5514 5514 5514 5513 5513 5513 5513 5512 5512 5511 5511 5510 5510 5509 5509 5509 5508 5508 5508 5508 5508 5508 5509 5510 5510 5511 5511 5512 5513 5514 5515 5516 5517 5518 5518 5519 5520 5520 5520 5521 5521 5521 5521 5521 5521 5521 5520 5520 5520 5519 5518 5518 5517 5516 5515 5514 5514 5513 5512